This demonstration page uses our WeatherBlox Daily Observations layout. Learn more.

Left ArrowRight Arrow

Hourly Observations for May 20, 2022

Temp ( °F °C ) Dew Point ( °F °C ) Humidity (%) Winds ( mph kmh ) Pressure ( in mb ) Visibility ( mi km ) Precip ( " mm )
12:53 am 00:53 Clear 75 23.9 13 -10.6 9 9 W 10 17 29.44 997 10 16 0.00 0.00
1:53 am 01:53 Clear 75 23.9 14 -10 10 10 W 9 15 29.42 996 10 16 0.00 0.00
2:53 am 02:53 Clear 72 22.2 14 -10 11 11 WSW 10 17 29.41 996 10 16 0.00 0.00
3:53 am 03:53 Clear 73 22.8 15 -9.4 11 11 WSW 10 17 29.40 996 10 16 0.00 0.00
4:53 am 04:53 Clear 66 18.9 14 -10 13 13 SE 7 11 29.43 997 10 16 0.00 0.00
5:53 am 05:53 Clear 62 16.7 14 -10 15 15 S 7 11 29.44 997 10 16 0.00 0.00
6:53 am 06:53 Sunny 61 16.1 15 -9.4 17 17 SSW 7 11 29.47 998 10 16 0.00 0.00
7:53 am 07:53 Sunny 71 21.7 23 -5 16 16 WSW 8 13 29.48 998 10 16 0.00 0.00
8:53 am 08:53 Sunny 76 24.4 23 -5 14 14 NW 3 6 29.51 999 10 16 0.00 0.00
9:53 am 09:53 Sunny 85 29.4 21 -6.1 9 9 W 20 31 29.51 999 10 16 0.00 0.00
10:53 am 10:53 Sunny 88 31.1 19 -7.2 8 8 W 13 20 29.51 999 10 16 0.00 0.00
11:53 am 11:53 Sunny 91 32.8 17 -8.3 6 6 W 15 24 29.51 999 10 16 0.00 0.00
12:53 pm 12:53 Sunny 94 34.4 18 -7.8 6 6 W 15 24 29.51 999 10 16 0.00 0.00
1:53 pm 13:53 Sunny 95 35 23 -5 7 7 W 20 31 29.49 999 10 16 0.00 0.00
2:53 pm 14:53 Sunny 97 36.1 23 -5 7 7 WSW 22 35 29.48 998 10 16 0.00 0.00
3:53 pm 15:53 Sunny 96 35.6 23 -5 7 7 WSW 15 24 29.47 998 10 16 0.00 0.00
4:53 pm 16:53 Sunny 96 35.6 22 -5.6 7 7 W 23 37 29.47 998 10 16 0.00 0.00
5:53 pm 17:53 Sunny 97 36.1 20 -6.7 6 6 WSW 18 30 29.46 998 10 16 0.00 0.00
6:53 pm 18:53 Sunny 97 36.1 14 -10 5 5 SW 18 30 29.45 997 10 16 0.00 0.00
7:53 pm 19:53 Sunny 95 35 13 -10.6 5 5 WSW 17 28 29.45 997 10 16 0.00 0.00
8:53 pm 20:53 Clear 89 31.7 13 -10.6 6 6 WSW 10 17 29.47 998 10 16 0.00 0.00
9:53 pm 21:53 Clear 83 28.3 13 -10.6 7 7 WSW 8 13 29.49 999 10 16 0.00 0.00
10:53 pm 22:53 Clear 81 27.2 13 -10.6 7 7 WSW 9 15 29.51 999 10 16 0.00 0.00
11:53 pm 23:53 Clear 77 25 14 -10 9 9 WSW 9 15 29.54 1000 10 16 0.00 0.00

Powered by AerisWeather